Regional Weather Roundup
Issued by NWS Burlington, VT

Home | Current Version | Previous Version | Text Only | Print | Product List | Glossary On
Versions: 1 2 3 4 5 6 7 8 9 10 11 12 13 14 15 16 17 18 19 20 21 22 23 24 25 26 27 28 29 30 31 32 33 34 35 36 37 38 39 40 41 42 43 44 45 46 47 48 49 50
000
ASUS41 KBTV 220910
RWRBTV
VERMONT REGIONAL WEATHER ROUNDUP
NATIONAL WEATHER SERVICE BURLINGTON VT
400 AM EST MON JAN 22 2018

NOTE: "FAIR" INDICATES FEW OR NO CLOUDS BELOW 12,000 FEET WITH NO
SIGNIFICANT WEATHER AND/OR OBSTRUCTIONS TO VISIBILITY.

* THESE REPORTS ARE NOT UNDER NWS QUALITY CONTROL AND/OR DO NOT
  REPORT WEATHER SUCH AS PRECIPITATION AND FOG.

VTZ001>019-221000-
_____VERMONT_____


CITY           SKY/WX    TMP DP  RH WIND       PRES   REMARKS
BURLINGTON     CLOUDY    26  20  77 NW10      30.22R WCI  16
MONTPELIER     CLOUDY    30  29  96 CALM      30.18S
MORRISVILLE    CLOUDY    30  25  81 N6        30.19R WCI  24
ST. JOHNSBURY*   N/A     32  27  81 MISG      30.16S
LYNDONVILLE*   CLOUDY    30  26  86 CALM      30.17R
MIDDLEBURY*    CLOUDY    28  25  89 N6        30.19R WCI  22
RUTLAND*       CLOUDY    31  30  96 N5        30.16S FOG     WCI  26
SPRINGFIELD    CLOUDY    30  29  96 CALM      30.17F
HIGHGATE*      CLOUDY    22  19  88 N5        30.24R WCI  16
NEWPORT*       CLOUDY    23  20  89 N8        30.20S WCI  14
BENNINGTON     CLOUDY    33  29  85 CALM      30.13S
SUTTON*          N/A     28 N/A N/A MISG        N/A

_____LAKE CHAMPLAIN_____


CITY           SKY/WX    TMP DP  RH WIND       PRES   REMARKS
BURTON ISLAND*   N/A     25  23  93 N6          N/A  WCI  18
COLCHESTER RF*   N/A     27  21  80 N15         N/A  WCI  15
DIAMOND ISL*     N/A     30  25  80 N18         N/A  WCI  18

$$

NYZ007-026>031-035-052-083-087-221000-
_____NORTHERN NEW YORK_____


CITY           SKY/WX    TMP DP  RH WIND       PRES   REMARKS
PLATTSBURGH    CLOUDY    24  18  77 N10       30.23R WCI  14
SARANAC LAKE   CLOUDY    28  25  88 NE7       30.09F WCI  21
MASSENA        CLOUDY    24  20  84 E16G23    30.21F WCI  11
OGDENSBURG*    MOCLDY    28  24  87 NE9       30.16F WCI  19
POTSDAM*       CLOUDY    25  21  86 NE9       30.16F WCI  15
WATERTOWN      CLOUDY    35  32  88 N6        30.11S FOG     WCI  30
FT DRUM        CLOUDY    34  30  84 NE6       30.10F WCI  29
ALBANY         DRIZZLE   33  30  88 N3        30.16S FOG
GLENS FALLS    CLOUDY    31  30  96 NE5       30.17S FOG     WCI  26

$$
NHZ002-005-011-221000-
_____NEW HAMPSHIRE_____


CITY           SKY/WX    TMP DP  RH WIND       PRES   REMARKS
LEBANON        CLOUDY    31  29  92 NE3       30.16S
KEENE          MIX PCPN  29  27  92 NE3       30.18S
MT WASHINGTON  FOG       18  18 100 SW18        N/A  VSB 1/8 WCI   2
PLYMOUTH       CLOUDY    27  26  98 CALM      30.19S
WHITEFIELD     CLOUDY    31  28  89 CALM      30.15S

$$

_____REGIONAL QUEBEC LOCATIONS_____


CITY           SKY/WX    TMP DP  RH WIND       PRES   REMARKS
MONTREAL       FLURRIES  18  12  79 NE16      30.27S WCI   3
QUEBEC CITY    MOCLDY    14   1  57 N6        30.34R WCI   5
SHERBROOKE     LGT SNOW  18  14  86 NE7       30.22R WCI   8

_____REGIONAL ONTARIO LOCATIONS_____


CITY           SKY/WX    TMP DP  RH WIND       PRES   REMARKS
OTTAWA         LGT SNOW  21  18  86 E14       30.20S WCI   8

______KEY______
VSB  - VISIBILITY IN MILES
WCI  - WIND CHILL INDEX
HX   - HEAT INDEX
$$
NNNN



USA.gov is the U.S. government's official web portal to all federal, state and local government web resources and services.